DW6283 Weather Reports


time (UTC)temp
F
wind
direction
speed
knots
gust
knots
rain 1hr
in
rain 24hr
in
rain mn
in
humidity
%
barometer
mb
20260504043046 60 94 0.0 5.2 0.00 0.00 0.00 58 1011.1
20260504041537 61 93 0.0 1.7 0.00 0.00 0.00 59 1010.8
20260504040023 62 83 0.0 6.1 0.00 0.00 0.00 57 1010.7
20260504034517 63 96 0.9 6.1 0.00 0.00 0.00 56 1010.3
20260504033059 64 122 0.0 4.3 0.00 0.00 0.00 56 1010.2
20260504031559 65 142 0.0 7.0 0.00 0.00 0.00 54 1009.9
20260504030041 67 86 1.7 7.8 0.00 0.00 0.00 52 1009.6
20260504024540 69 125 0.9 5.2 0.00 0.00 0.00 50 1009.2
20260504023026 72 82 0.0 4.3 0.00 0.00 0.00 48 1008.9
20260504021523 73 141 0.0 2.6 0.00 0.00 0.00 46 1008.5
20260504020010 73 75 0.0 3.5 0.00 0.00 0.00 44 1008.4
20260504014510 74 70 0.0 4.3 0.00 0.00 0.00 44 1008.3
20260504013008 75 77 0.0 3.5 0.00 0.00 0.00 41 1008.4
20260504011517 76 74 0.0 2.6 0.00 0.00 0.00 41 1008.4
20260504010006 77 66 0.0 3.5 0.00 0.00 0.00 41 1008.4
20260504004506 78 60 0.0 2.6 0.00 0.00 0.00 41 1008.5
20260504003006 79 57 0.0 3.5 0.00 0.00 0.00 40 1008.4
20260504001505 79 49 0.0 0.9 0.00 0.00 0.00 40 1008.4
20260504000046 79 49 0.0 4.3 0.00 0.00 0.00 40 1008.5
20260503234545 80 49 0.0 1.7 0.00 0.00 0.00 38 1008.6
20260503233028 80 61 0.0 2.6 0.00 0.00 0.00 39 1008.7
20260503231527 80 139 0.0 3.5 0.00 0.00 0.00 38 1008.8
20260503230008 80 106 0.0 1.7 0.00 0.00 0.00 40 1008.8
20260503224509 80 182 0.0 0.9 0.00 0.00 0.00 39 1009.0
20260503223047 81 170 0.0 1.7 0.00 0.00 0.00 38 1009.2
20260503221546 82 108 0.0 2.6 0.00 0.00 0.00 37 1009.4
20260503220027 81 152 0.0 5.2 0.00 0.00 0.00 40 1009.6
20260503214527 81 82 0.9 4.3 0.00 0.00 0.00 39 1009.6
20260503213006 81 43 0.0 1.7 0.00 0.00 0.00 38 1009.7
20260503211505 80 81 0.0 5.2 0.00 0.00 0.00 39 1009.8
20260503210045 80 134 0.0 4.3 0.00 0.00 0.00 40 1009.9
20260503204544 80 32 0.0 1.7 0.00 0.00 0.00 38 1009.9
20260503203025 81 70 0.0 3.5 0.00 0.00 0.00 40 1010.0
20260503201524 81 62 0.0 3.5 0.00 0.00 0.00 39 1010.2
20260503200006 80 82 0.0 2.6 0.00 0.00 0.00 40 1010.4
20260503194502 80 80 0.0 2.6 0.00 0.00 0.00 39 1010.7
20260503193046 79 82 0.0 3.5 0.00 0.00 0.00 41 1011.0
20260503191542 79 79 0.0 2.6 0.00 0.00 0.00 40 1011.0
20260503190022 78 80 0.0 2.6 0.00 0.00 0.00 42 1011.0
20260503184519 77 76 0.0 3.5 0.00 0.00 0.00 44 1011.1
20260503183059 76 92 0.0 4.3 0.00 0.00 0.00 43 1011.1
20260503181602 75 224 0.0 3.5 0.00 0.00 0.00 45 1011.2
20260503180045 74 84 0.0 2.6 0.00 0.00 0.00 48 1011.3
20260503174534 72 103 0.0 6.1 0.00 0.00 0.00 50 1011.2
20260503173009 70 80 0.0 3.5 0.00 0.00 0.00 52 1011.3
20260503171507 70 105 0.9 6.1 0.00 0.00 0.00 53 1011.2
20260503160117 65 89 0.0 6.1 0.00 0.00 0.00 63 1010.9
20260503081549 58 136 0.0 6.1 0.00 0.00 0.00 78 1008.1
20260503071510 61 132 0.9 7.0 0.00 0.00 0.00 77 1007.7
20260503054505 65 88 0.0 4.3 0.00 0.00 0.00 70 1007.9
20260503053006 66 66 0.0 3.5 0.00 0.00 0.00 69 1007.7
20260503051548 66 86 0.9 4.3 0.00 0.00 0.00 67 1007.6
20260503050048 67 81 0.0 4.3 0.00 0.00 0.00 66 1007.7
20260503044533 68 95 0.0 4.3 0.00 0.00 0.00 64 1007.6